DMSP 5D-2 F8 DEB

Satellite information

Favourite Embed

Satellite Type and Status

DEBRISIN ORBIT

Key statistics

Satellite DMSP 5D-2 F8 DEB at a glance.

Uptime

14057

Days in orbit

Revolutions

≈ 14.3

Per day

Orbit

SSO

Sun Synchronous Orbit

Inclination

98.7

Latest

Satellite identification and parameters

Extended collection of information and parameters for DMSP 5D-2 F8 DEB.

Object identification

Identified? True

Debris? True

Object name: DMSP 5D-2 F8 DEB

International designator: 1987-053J

Object number (NORAD): 60251

Object ID (CCSDS): 60251

Country: UNITED STATES OF AMERICA (US)

Current information (Y/N): Y

RCS size: MEDIUM

Orbital parameters

Period: 100.977 minutes

Inclination: 98.7271 deg

SMA: 7183.056 km

Apoapsis: 816.774 km

Periapsis: 793.068 km

RAAN: 175.24 deg

Eccentricy: 0.00165015

Argument of periapsis: 295.5644 deg

Mean anomaly: 64.383 deg

Mean motion: 14.26063606 rev/day

Mean motion (dot): 0.00004132 rev/day2

B* drag term: 0.0017448374 1/REarth

Two-line elements (TLE)

Creation date: Dec. 14, 2025, 3:07 a.m.

Reference frame: TEME

Reference center: EARTH

Epoch: Dec. 13, 2025, 1:49 p.m. UTC

TLE line 0: 0 DMSP 5D-2 F8 DEB

TLE line 1: 1 60251U 87053J 25347.57598923 .00004132 00000-0 17448-2 0 9992

TLE line 2: 2 60251 98.7271 175.2400 0016502 295.5644 64.3830 14.26063606 72779

Live tracking on map

Real-time ground track for satellite DMSP 5D-2 F8 DEB.

In-orbit conjunctions

A list of the most updated potential collisions computed for object DMSP 5D-2 F8 DEB.

Target Orbit TCA Probability of collision Miss distance Type
FENGYUN 1C DEB SSO 2025-08-12 12:54:49 0.0001059021 365.0 (m) DEBRIS
DMSP 5D-2 F14 DEB SSO 2025-06-15 19:26:21 0.0001228991 149.0 (m) DEBRIS
NOAA 16 DEB SSO 2025-05-24 06:32:54 0.001110184 35.0 (m) DEBRIS
CZ-6A DEB LEO 2025-01-19 12:47:56 0.0001231814 312.0 (m) DEBRIS
CZ-6A DEB LEO 2024-11-28 15:10:12 0.0001507537 420.0 (m) DEBRIS

Associated space launch

Military meteorological satellite

DMSP 5D-2 F8 DEB was lifted into orbit during the mission ‘Atlas E | DMSP-5D2 F8’, on board a Atlas E space rocket.

The launch took place on June 20, 1987, 2:34 a.m. from Space Launch Complex 3W.

For more information about the launch, click the button.

Launch to space Atlas E | DMSP-5D2 F8
Atlas E | DMSP-5D2 F8

Agency: N/A

Status: Launch Successful

Launch date: June 20, 1987, 2:34 a.m. UTC

Rocket: Atlas E

Launch pad: Space Launch Complex 3W

Location: Vandenberg SFB, CA, USA

...

Latest news about this satellite

There are no fresh news available about this satellite. Check back as we update our databases every day.


Newsletter sign-up

Weekly statistics, charts and insights to help you stay on top of the space industry.